Location: Lhota
(50.0887°N, 14.0116°E)
Time: 01:56:44
(UTC+00:00)

Cosmos 2221 - Pass Details

Date: 19 May 2025
Orbit: 573 x 592 km, 82.5° (Epoch: 23 June)

Event Time Altitude Azimuth Distance (km) Brightness Sun altitude
Exits shadow 21:37:51 17° 219° (SW) 1,500 4.2 -17.6°
Maximum altitude 21:40:47 43° 285° (WNW) 819 3.4 -17.8°
Drops below altitude 10° 21:44:47 10° 358° (N) 1,897 6.2 -18.0°
Sets 21:47:04 0° 5° (N) 2,799 7.1 -18.1°
